User: anonymous   Login
Location: Unspecified
(0.0000°N, 0.0000°E)
Time: 09:07:47
(UTC+00:00)
Language:

Kosmos-2172 - Orbit

View from above orbital plane
View from above orbital plane
View from above satellite
View from above satellite

Ground track
Ground track

The orbit data is extracted from the following two-line orbital elements,

1 21796U 91081A   18109.85660854 +.00000043 +00000-0 +28484-4 0  9992
2 21796 082.9585 216.6768 0049781 028.2535 090.0423 13.75479514324669
Epoch (UTC): 19 April 2018 20:33:30
Eccentricity: 0.0049781
inclination: 82.9585°
perigee height: 943 km
apogee height: 1016 km
right ascension of ascending node: 216.6768°
argument of perigee: 28.2535°
revolutions per day: 13.75479514
mean anomaly at epoch: 90.0423°
orbit number at epoch: 32466

The dashed part of the orbit path shows where the satellite is in the earth's shadow,  

DLR